Time,TemperatureF,DewpointF,PressureIn,WindDirection,WindDirectionDegrees,WindSpeedMPH,WindSpeedGustMPH,Humidity,HourlyPrecipIn,Conditions,Clouds,dailyrainin,SolarRadiationWatts/m^2,SoftwareType,DateUTC
2015-05-04 00:04:00,58.9,44.2,29.84,East,99,5.0,9.0,58,0.00,,CLR,0.00,0.00,VWS V14.00,2015-05-04 07:04:00,
2015-05-04 00:09:00,58.9,43.7,29.84,ESE,104,4.0,6.0,57,0.00,,CLR,0.00,0.00,VWS V14.00,2015-05-04 07:09:00,
2015-05-04 00:14:00,58.8,43.6,29.84,ESE,103,8.0,8.0,57,0.00,,CLR,0.00,0.00,VWS V14.00,2015-05-04 07:14:00,
2015-05-04 00:19:00,58.8,43.6,29.84,ESE,103,0.0,7.0,57,0.00,,CLR,0.00,0.00,VWS V14.00,2015-05-04 07:19:00,
2015-05-04 00:24:00,58.7,43.5,29.84,East,101,6.0,6.0,57,0.00,,CLR,0.00,0.00,VWS V14.00,2015-05-04 07:24:00,
2015-05-04 00:29:00,58.7,43.5,29.84,ESE,103,8.0,8.0,57,0.00,,CLR,0.00,0.00,VWS V14.00,2015-05-04 07:29:00,
2015-05-04 00:34:00,58.7,43.5,29.84,East,101,2.0,9.0,57,0.00,,CLR,0.00,0.00,VWS V14.00,2015-05-04 07:34:00,
2015-05-04 00:39:00,58.7,44.4,29.85,ESE,108,9.0,12.0,59,0.00,,CLR,0.00,0.00,VWS V14.00,2015-05-04 07:39:00,
2015-05-04 00:44:00,58.6,43.9,29.85,ESE,105,5.0,11.0,58,0.00,,CLR,0.00,0.00,VWS V14.00,2015-05-04 07:44:00,
2015-05-04 00:49:00,58.6,43.9,29.85,ESE,103,5.0,13.0,58,0.00,,CLR,0.00,0.00,VWS V14.00,2015-05-04 07:49:00,
2015-05-04 00:54:00,58.5,44.2,29.85,ESE,108,6.0,11.0,59,0.00,,CLR,0.00,0.00,VWS V14.00,2015-05-04 07:54:00,
2015-05-04 00:59:00,58.4,43.7,29.85,ESE,102,7.0,8.0,58,0.00,,CLR,0.00,0.00,VWS V14.00,2015-05-04 07:59:00,
2015-05-04 01:04:00,58.4,43.7,29.85,East,99,9.0,13.0,58,0.00,,CLR,0.00,0.00,VWS V14.00,2015-05-04 08:04:00,
2015-05-04 01:09:00,58.2,43.5,29.85,East,99,0.0,9.0,58,0.00,,CLR,0.00,0.00,VWS V14.00,2015-05-04 08:09:00,
2015-05-04 01:14:00,58.2,44.0,29.84,East,99,7.0,11.0,59,0.00,,CLR,0.00,0.00,VWS V14.00,2015-05-04 08:14:00,
2015-05-04 01:19:00,58.1,43.4,29.84,ESE,102,4.0,11.0,58,0.00,,CLR,0.00,0.00,VWS V14.00,2015-05-04 08:19:00,
2015-05-04 01:24:00,58.0,42.9,29.85,ESE,103,0.0,9.0,57,0.00,,CLR,0.00,0.00,VWS V14.00,2015-05-04 08:24:00,
2015-05-04 01:29:00,57.9,42.8,29.84,East,99,4.0,14.0,57,0.00,,CLR,0.00,0.00,VWS V14.00,2015-05-04 08:29:00,
2015-05-04 01:34:00,57.8,42.7,29.84,ESE,103,2.0,7.0,57,0.00,,CLR,0.00,0.00,VWS V14.00,2015-05-04 08:34:00,
2015-05-04 01:39:00,57.8,42.7,29.84,East,98,11.0,13.0,57,0.00,,CLR,0.00,0.00,VWS V14.00,2015-05-04 08:39:00,
2015-05-04 01:44:00,57.8,42.7,29.84,ESE,103,6.0,6.0,57,0.00,,CLR,0.00,0.00,VWS V14.00,2015-05-04 08:44:00,
2015-05-04 01:49:00,57.8,42.2,29.84,ESE,105,5.0,8.0,56,0.00,,CLR,0.00,0.00,VWS V14.00,2015-05-04 08:49:00,
2015-05-04 01:54:00,57.7,42.1,29.84,East,101,4.0,6.0,56,0.00,,CLR,0.00,0.00,VWS V14.00,2015-05-04 08:54:00,
2015-05-04 01:59:00,57.7,42.1,29.84,East,100,1.0,5.0,56,0.00,,CLR,0.00,0.00,VWS V14.00,2015-05-04 08:59:00,
2015-05-04 02:04:00,57.7,41.7,29.84,ESE,105,1.0,7.0,55,0.00,,CLR,0.00,0.00,VWS V14.00,2015-05-04 09:04:00,
2015-05-04 02:10:00,57.7,41.7,29.83,ESE,106,0.0,7.0,55,0.00,,CLR,0.00,0.00,VWS V14.00,2015-05-04 09:10:00,
2015-05-04 02:15:00,57.6,41.6,29.83,ESE,103,2.0,5.0,55,0.00,,CLR,0.00,0.00,VWS V14.00,2015-05-04 09:15:00,
2015-05-04 02:20:00,57.6,41.6,29.83,East,98,4.0,5.0,55,0.00,,CLR,0.00,0.00,VWS V14.00,2015-05-04 09:20:00,
2015-05-04 02:25:00,57.6,41.1,29.83,ESE,103,1.0,7.0,54,0.00,,CLR,0.00,0.00,VWS V14.00,2015-05-04 09:25:00,
2015-05-04 02:30:00,57.5,41.0,29.83,ESE,103,5.0,11.0,54,0.00,,CLR,0.00,0.00,VWS V14.00,2015-05-04 09:30:00,
2015-05-04 02:35:00,57.5,41.5,29.83,ESE,104,4.0,9.0,55,0.00,,CLR,0.00,0.00,VWS V14.00,2015-05-04 09:35:00,
2015-05-04 02:40:00,57.5,41.5,29.83,East,101,1.0,6.0,55,0.00,,CLR,0.00,0.00,VWS V14.00,2015-05-04 09:40:00,
2015-05-04 02:45:00,57.5,41.0,29.83,East,96,2.0,5.0,54,0.00,,CLR,0.00,0.00,VWS V14.00,2015-05-04 09:45:00,
2015-05-04 02:50:00,57.4,40.9,29.83,East,97,6.0,6.0,54,0.00,,CLR,0.00,0.00,VWS V14.00,2015-05-04 09:50:00,
2015-05-04 02:55:00,57.4,40.4,29.83,East,98,6.0,6.0,53,0.00,,CLR,0.00,0.00,VWS V14.00,2015-05-04 09:55:00,
2015-05-04 03:00:00,57.3,40.8,29.83,East,98,0.0,8.0,54,0.00,,CLR,0.00,0.00,VWS V14.00,2015-05-04 10:00:00,
2015-05-04 03:05:00,57.3,40.3,29.83,ESE,102,1.0,4.0,53,0.00,,CLR,0.00,0.00,VWS V14.00,2015-05-04 10:05:00,
2015-05-04 03:10:00,57.3,40.3,29.83,ESE,103,7.0,7.0,53,0.00,,CLR,0.00,0.00,VWS V14.00,2015-05-04 10:10:00,
2015-05-04 03:15:00,57.2,40.2,29.83,East,100,1.0,9.0,53,0.00,,CLR,0.00,0.00,VWS V14.00,2015-05-04 10:15:00,
2015-05-04 03:20:00,57.2,40.2,29.83,ESE,103,0.0,7.0,53,0.00,,CLR,0.00,0.00,VWS V14.00,2015-05-04 10:20:00,
2015-05-04 03:25:00,57.2,39.8,29.84,ESE,106,6.0,9.0,52,0.00,,CLR,0.00,0.00,VWS V14.00,2015-05-04 10:25:00,
2015-05-04 03:30:00,57.2,39.8,29.84,ESE,107,1.0,9.0,52,0.00,,CLR,0.00,0.00,VWS V14.00,2015-05-04 10:30:00,
2015-05-04 03:35:00,57.1,39.2,29.84,ESE,102,1.0,8.0,51,0.00,,CLR,0.00,0.00,VWS V14.00,2015-05-04 10:35:00,
2015-05-04 03:40:00,57.1,39.7,29.84,East,101,1.0,9.0,52,0.00,,CLR,0.00,0.00,VWS V14.00,2015-05-04 10:40:00,
2015-05-04 03:45:00,57.1,39.2,29.84,East,96,8.0,9.0,51,0.00,,CLR,0.00,0.00,VWS V14.00,2015-05-04 10:45:00,
2015-05-04 03:50:00,57.1,39.2,29.84,East,97,0.0,6.0,51,0.00,,CLR,0.00,0.00,VWS V14.00,2015-05-04 10:50:00,
2015-05-04 03:55:00,57.0,39.6,29.84,East,101,1.0,6.0,52,0.00,,CLR,0.00,0.00,VWS V14.00,2015-05-04 10:55:00,
2015-05-04 04:00:00,57.0,39.1,29.84,ESE,102,5.0,7.0,51,0.00,,CLR,0.00,0.00,VWS V14.00,2015-05-04 11:00:00,
2015-05-04 04:05:00,56.9,39.0,29.84,East,95,8.0,9.0,51,0.00,,CLR,0.00,0.00,VWS V14.00,2015-05-04 11:05:00,
2015-05-04 04:10:00,56.9,39.0,29.84,East,96,1.0,8.0,51,0.00,,CLR,0.00,0.00,VWS V14.00,2015-05-04 11:10:00,
2015-05-04 04:15:00,56.8,38.4,29.84,East,100,4.0,7.0,50,0.00,,CLR,0.00,0.00,VWS V14.00,2015-05-04 11:15:00,
2015-05-04 04:20:00,56.7,38.3,29.84,East,101,1.0,7.0,50,0.00,,CLR,0.00,0.00,VWS V14.00,2015-05-04 11:20:00,
2015-05-04 04:25:00,56.7,38.3,29.84,ESE,104,2.0,6.0,50,0.00,,CLR,0.00,0.00,VWS V14.00,2015-05-04 11:25:00,
2015-05-04 04:30:00,56.6,38.7,29.85,East,98,2.0,7.0,51,0.00,,CLR,0.00,0.00,VWS V14.00,2015-05-04 11:30:00,
2015-05-04 04:35:00,56.6,38.2,29.85,East,99,1.0,5.0,50,0.00,,CLR,0.00,0.00,VWS V14.00,2015-05-04 11:35:00,
2015-05-04 04:40:00,56.6,38.2,29.85,East,101,0.0,7.0,50,0.00,,CLR,0.00,0.00,VWS V14.00,2015-05-04 11:40:00,
2015-05-04 04:46:00,56.5,38.1,29.85,ESE,110,1.0,7.0,50,0.00,,CLR,0.00,0.00,VWS V14.00,2015-05-04 11:46:00,
2015-05-04 04:51:00,56.4,37.5,29.85,ESE,107,5.0,5.0,49,0.00,,CLR,0.00,0.00,VWS V14.00,2015-05-04 11:51:00,
2015-05-04 04:56:00,56.3,37.4,29.85,ESE,105,4.0,7.0,49,0.00,,CLR,0.00,0.00,VWS V14.00,2015-05-04 11:56:00,
2015-05-04 05:01:00,56.3,37.4,29.85,ESE,102,0.0,7.0,49,0.00,,CLR,0.00,0.00,VWS V14.00,2015-05-04 12:01:00,
2015-05-04 05:06:00,56.2,37.3,29.85,East,101,1.0,5.0,49,0.00,,CLR,0.00,0.00,VWS V14.00,2015-05-04 12:06:00,
2015-05-04 05:11:00,56.1,37.2,29.85,East,101,1.0,4.0,49,0.00,,CLR,0.00,0.00,VWS V14.00,2015-05-04 12:11:00,
2015-05-04 05:16:00,56.1,37.2,29.85,ESE,102,1.0,5.0,49,0.00,,CLR,0.00,0.00,VWS V14.00,2015-05-04 12:16:00,
2015-05-04 05:21:00,56.0,37.1,29.85,ESE,103,1.0,6.0,49,0.00,,CLR,0.00,0.00,VWS V14.00,2015-05-04 12:21:00,
2015-05-04 05:26:00,55.9,36.5,29.85,ESE,104,4.0,6.0,48,0.00,,CLR,0.00,0.00,VWS V14.00,2015-05-04 12:26:00,
2015-05-04 05:31:00,55.9,36.5,29.85,East,101,4.0,5.0,48,0.00,,CLR,0.00,0.00,VWS V14.00,2015-05-04 12:31:00,
2015-05-04 05:36:00,55.8,36.9,29.86,East,100,6.0,6.0,49,0.00,,CLR,0.00,0.00,VWS V14.00,2015-05-04 12:36:00,